This demonstration page uses our WeatherBlox Daily Observations layout. Learn more.

38.89511, -77.03637

Hourly Observations for June 19, 2020

Temp ( °F °C ) Dew Point ( °F °C ) Humidity (%) Winds ( mph kmh ) Pressure ( in mb ) Visibility ( mi km ) Precip ( " mm )
12:52 am 00:52 Partly Cloudy 72 22.2 66 18.9 82 82 S 7 11 30.1 1019 10 16.0934 0 0
1:52 am 01:52 Mostly Clear 70 21.1 66 18.9 87 87 SSW 6 9 30.1 1019 10 16.0934 0 0
2:52 am 02:52 Partly Cloudy 70 21.1 66 18.9 87 87 S 6 9 30.1 1019 10 16.0934 0 0
3:52 am 03:52 Mostly Cloudy 70 21.1 66 18.9 87 87 SW 3 6 30.1 1019 10 16.0934 0 0
4:52 am 04:52 Partly Cloudy 69 20.6 66 18.9 90 90 S 5 7 30.1 1019 10 16.0934 0 0
5:52 am 05:52 Mostly Cloudy 69 20.6 67 19.4 93 93 S 6 9 30.11 1020 10 16.0934 0 0
6:52 am 06:52 Cloudy 70 21.1 67 19.4 90 90 S 5 7 30.12 1020 10 16.0934 0 0
7:52 am 07:52 Partly Cloudy 71 21.7 67 19.4 87 87 S 5 7 30.12 1020 10 16.0934 0.001 0.001
8:52 am 08:52 Mostly Cloudy 73 22.8 68 20 84 84 S 7 11 30.14 1021 10 16.0934 0.001 0.001
9:52 am 09:52 Mostly Cloudy 75 23.9 67 19.4 76 76 SSE 9 15 30.12 1020 10 16.0934 0 0
10:52 am 10:52 Mostly Cloudy 77 25 68 20 74 74 SSE 9 15 30.12 1020 10 16.0934 0 0
11:52 am 11:52 Partly Cloudy 80 26.7 68 20 67 67 S 10 17 30.11 1020 10 16.0934 0 0
12:52 pm 12:52 Mostly Cloudy 81 27.2 67 19.4 62 62 S 13 20 30.1 1019 10 16.0934 0 0
1:52 pm 13:52 Mostly Cloudy 82 27.8 67 19.4 60 60 S 13 20 30.06 1018 10 16.0934 0 0
2:52 pm 14:52 Mostly Cloudy with Nearby Thunderstorms 81 27.2 66 18.9 61 61 S 13 20 30.05 1018 10 16.0934 0 0
3:13 pm 15:13 Mostly Cloudy with Light Thunderstorms 80 26.7 66 18.9 62 62 SSW 12 19 30.07 1018 10 16.0934 0.001 0.001
3:34 pm 15:34 Cloudy with Light Rain 76 24.4 68 20 77 77 WSW 14 22 30.07 1018 10 16.0934 0.001 0.001
3:52 pm 15:52 Cloudy with Light Rain 75 23.9 69 20.6 82 82 WSW 8 13 30.06 1018 10 16.0934 0.01 0.254
4:52 pm 16:52 Mostly Cloudy 79 26.1 71 21.7 77 77 NW 6 9 30.05 1018 10 16.0934 0.001 0.001
5:52 pm 17:52 Mostly Cloudy 80 26.7 68 20 67 67 S 13 20 30.03 1017 10 16.0934 0 0
6:52 pm 18:52 Mostly Cloudy 80 26.7 68 20 67 67 S 9 15 30.03 1017 10 16.0934 0 0
7:52 pm 19:52 Mostly Cloudy 78 25.6 66 18.9 67 67 S 10 17 30.05 1018 10 16.0934 0 0
8:52 pm 20:52 Cloudy 77 25 66 18.9 69 69 S 12 19 30.06 1018 10 16.0934 0 0
8:59 pm 20:59 Cloudy with Thunderstorms 77 25 66 18.9 69 69 S 12 19 30.07 1018 10 16.0934 0 0
9:40 pm 21:40 Cloudy with Nearby Thunderstorms 75 23.9 67 19.4 76 76 SSW 9 15 30.08 1019 10 16.0934 0.001 0.001
9:45 pm 21:45 Cloudy 75 23.9 66 18.9 74 74 SSW 10 17 30.09 1019 10 16.0934 0.001 0.001
9:52 pm 21:52 Cloudy 75 23.9 66 18.9 74 74 SSW 9 15 30.09 1019 10 16.0934 0.001 0.001
10:52 pm 22:52 Cloudy with Light Rain 74 23.3 67 19.4 79 79 SW 3 6 30.08 1019 10 16.0934 0.001 0.001
11:52 pm 23:52 Mostly Cloudy 73 22.8 68 20 84 84 S 9 15 30.08 1019 10 16.0934 0.001 0.001

Powered by AerisWeather